User: anonymous   Login
Location: Drayton Valley
(53.2170°N, 114.9830°W)
Time: 03:07:16
(UTC-06:00)
Language:

Cosmos 1302 Rocket - Orbit

View from above orbital plane
View from above orbital plane
View from above satellite
View from above satellite

Ground track
Ground track

The orbit data is extracted from the following two-line orbital elements,

1 12792U 81084B   14303.45279329  .00000351  00000-0  12659-3 0  6514
2 12792 074.0316 003.6774 0012969 167.1435 293.2785 14.37163766737024
Epoch (UTC): 30 October 2014 10:52:01
Eccentricity: 0.0012969
inclination: 74.0316°
perigee height: 758 km
apogee height: 777 km
right ascension of ascending node: 3.6774°
argument of perigee: 167.1435°
revolutions per day: 14.37163766
mean anomaly at epoch: 293.2785°
orbit number at epoch: 73702

The dashed part of the orbit path shows where the satellite is in the earth's shadow,  

DLR